Location: ?
(35.4996°N, 139.3166°E)
Time: 10:20:03
(UTC+00:00)

ATLAS 5 CENTAUR R/B - Visible Passes

Search period start: 24 July 2024 00:00
Search period end: 03 August 2024 00:00
Orbit: 416 x 1166 km, 63.3° (Epoch: 23 July)

Date Brightness Start Highest point End Pass type
(mag) Time Alt. Az. Time Alt. Az. Time Alt. Az.
24 Jul 4.7 15:28:06 10° N 15:31:12 16° NE 15:34:37 10° E visible
24 Jul 2.1 17:09:59 10° NNW 17:15:20 85° WSW 17:20:21 18° SSE visible
24 Jul 4.0 18:56:50 10° W 18:58:53 12° WSW 19:00:27 11° SW visible
25 Jul 4.8 14:58:08 10° NNE 15:00:04 12° NE 15:02:08 10° ENE visible
25 Jul 2.3 16:39:05 10° NNW 16:44:23 74° ENE 16:45:41 55° SE visible
25 Jul 3.9 18:24:29 10° WNW 18:26:12 15° W 18:26:12 15° W visible
26 Jul 2.7 16:08:12 10° NNW 16:13:22 56° ENE 16:13:25 56° ENE visible
26 Jul 4.0 17:52:46 10° WNW 17:54:00 15° WNW 17:54:00 15° WNW visible
27 Jul 3.2 15:37:22 10° NNW 15:41:49 41° NE 15:41:49 41° NE visible
27 Jul 4.1 17:21:17 10° WNW 17:22:26 16° WNW 17:22:26 16° WNW visible
28 Jul 3.6 15:06:34 10° N 15:10:33 31° NE 15:10:33 31° NE visible
28 Jul 4.1 16:49:56 10° NW 16:51:11 17° WNW 16:51:11 17° WNW visible
29 Jul 4.0 14:35:47 10° N 14:39:28 24° NE 14:39:28 24° NE visible
29 Jul 4.0 16:18:40 10° NW 16:20:07 19° NW 16:20:07 19° NW visible
30 Jul 4.2 14:05:07 10° N 14:08:32 19° NE 14:08:32 19° NE visible
30 Jul 4.0 15:47:27 10° NW 15:49:11 22° NW 15:49:11 22° NW visible
31 Jul 4.4 13:34:36 10° NNE 13:37:28 15° NE 13:37:40 15° NE visible
31 Jul 3.9 15:16:16 10° NNW 15:18:20 26° NNW 15:18:20 26° NNW visible
01 Aug 4.6 13:04:37 10° NNE 13:06:03 11° NE 13:06:52 11° NE visible
01 Aug 3.8 14:45:08 10° NNW 14:47:31 29° NNW 14:47:31 29° NNW visible
02 Aug 3.7 14:14:01 10° NNW 14:16:46 31° N 14:16:46 31° N visible
